Zurück zum Katalog

FENGYUN 1C DEB

AktivSSO
NORAD 30114·DEBRIS·🇨🇳 China

Gestartet May 10, 1999 von Taiyuan Satellite Launch Center

Loading…

Nächste Überflüge (nächste 24 Stunden)

TLE

AktuellSource: Space-Track

Epoche: Sep 14, 2026, 18:21 UTC

1 30114U 99025RT  26257.76502509  .00000219  00000-0  14421-3 0  9997
2 30114  98.7548 257.5151 0082180  59.4106 115.8219 14.09834129 10438

Verfolge FENGYUN 1C DEB in Echtzeit mit AllMySat

Download on the App Store